WAT3465 FACT-SCEL

Flight info

Callsign WAT3465
Flight time N/A
Altitude 36000
Route IMSOM1A IMSOM Q36 APKIN UL211F ANKOK DCT MDP UW15 DIL UT688 ASOLO UT687 UMKAL UMKAL7C
Aircraft A359/H-SDE2E3GHIJ3J4J5LM1ORWXY/LB1D1

Departure

Time N/A
Airport Cape Town International Airport (FACT)

Arrival

Time 2026-05-04 04:47
Airport Comodoro Arturo Merino Benítez International Airport (SCEL)
Time Latitude Longitude Altitude Speed Heading
2026-05-04 03:26 -36.21325 -61.57197 35976 ft 421 kts 291°
2026-05-04 03:27 -36.19904 -61.60372 35974 ft 421 kts 291°
2026-05-04 03:27 -36.17080 -61.66669 35976 ft 421 kts 291°
2026-05-04 03:28 -36.14232 -61.73010 35976 ft 421 kts 291°
2026-05-04 03:28 -36.11382 -61.79343 35974 ft 422 kts 291°
2026-05-04 03:29 -36.08532 -61.85679 35975 ft 422 kts 291°
2026-05-04 03:29 -36.05667 -61.92010 35973 ft 422 kts 291°
2026-05-04 03:30 -36.02800 -61.98335 35971 ft 422 kts 291°
2026-05-04 03:30 -35.99934 -62.04651 35971 ft 422 kts 291°
2026-05-04 03:31 -35.97062 -62.10971 35968 ft 422 kts 291°
2026-05-04 03:31 -35.94190 -62.17278 35971 ft 421 kts 291°
2026-05-04 03:32 -35.91316 -62.23576 35969 ft 421 kts 291°
2026-05-04 03:32 -35.88441 -62.29867 35968 ft 421 kts 291°
2026-05-04 03:33 -35.85565 -62.36150 35963 ft 421 kts 291°
2026-05-04 03:33 -35.82704 -62.42387 35962 ft 421 kts 291°
2026-05-04 03:34 -35.79819 -62.48664 35970 ft 421 kts 292°
2026-05-04 03:34 -35.76934 -62.54927 35965 ft 420 kts 292°
2026-05-04 03:35 -35.74046 -62.61188 35963 ft 420 kts 292°
2026-05-04 03:35 -35.71158 -62.67438 35964 ft 420 kts 292°
2026-05-04 03:36 -35.68269 -62.73678 35965 ft 420 kts 292°
2026-05-04 03:36 -35.65372 -62.79922 35960 ft 420 kts 292°
2026-05-04 03:37 -35.62477 -62.86152 35962 ft 420 kts 292°
2026-05-04 03:37 -35.59574 -62.92387 35962 ft 420 kts 292°
2026-05-04 03:38 -35.56673 -62.98611 35960 ft 420 kts 292°
2026-05-04 03:38 -35.53765 -63.04836 35958 ft 420 kts 292°
2026-05-04 03:39 -35.50850 -63.11062 35961 ft 420 kts 292°
2026-05-04 03:39 -35.47935 -63.17276 35959 ft 420 kts 292°
2026-05-04 03:40 -35.45015 -63.23492 35958 ft 421 kts 292°
2026-05-04 03:40 -35.42093 -63.29701 35957 ft 421 kts 292°
2026-05-04 03:41 -35.39164 -63.35915 35956 ft 420 kts 292°
2026-05-04 03:41 -35.36731 -63.41067 35958 ft 420 kts 292°
2026-05-04 03:42 -35.33801 -63.47260 35952 ft 420 kts 292°
2026-05-04 03:42 -35.30867 -63.53453 35953 ft 420 kts 292°
2026-05-04 03:43 -35.27928 -63.59643 35951 ft 420 kts 292°
2026-05-04 03:43 -35.24988 -63.65824 35952 ft 420 kts 292°
2026-05-04 03:44 -35.22046 -63.72000 35948 ft 420 kts 292°
2026-05-04 03:44 -35.19098 -63.78178 35950 ft 420 kts 292°
2026-05-04 03:45 -35.16147 -63.84349 35949 ft 421 kts 293°
2026-05-04 03:45 -35.13190 -63.90523 35947 ft 421 kts 293°
2026-05-04 03:46 -35.10229 -63.96692 35944 ft 421 kts 293°
2026-05-04 03:46 -35.07264 -64.02861 35943 ft 421 kts 293°
2026-05-04 03:47 -35.04296 -64.09026 35943 ft 422 kts 293°
2026-05-04 03:47 -35.01317 -64.15195 35943 ft 422 kts 293°
2026-05-04 03:48 -34.98334 -64.21363 35940 ft 422 kts 293°
2026-05-04 03:48 -34.95347 -64.27531 35940 ft 422 kts 293°
2026-05-04 03:49 -34.92357 -64.33693 35936 ft 423 kts 293°
2026-05-04 03:49 -34.89358 -64.39865 35934 ft 423 kts 293°
2026-05-04 03:50 -34.86374 -64.45996 35943 ft 424 kts 294°
2026-05-04 03:50 -34.83361 -64.52170 35939 ft 424 kts 294°
2026-05-04 03:51 -34.80343 -64.58346 35932 ft 425 kts 294°
2026-05-04 03:51 -34.77321 -64.64519 35934 ft 425 kts 294°
2026-05-04 03:52 -34.74441 -64.70765 35930 ft 423 kts 291°
2026-05-04 03:52 -34.71716 -64.77096 35933 ft 423 kts 291°
2026-05-04 03:53 -34.68975 -64.83421 35930 ft 423 kts 291°
2026-05-04 03:53 -34.66199 -64.89724 35934 ft 424 kts 291°
2026-05-04 03:54 -34.63401 -64.96032 35933 ft 424 kts 291°
2026-05-04 03:54 -34.60601 -65.02331 35935 ft 424 kts 292°
2026-05-04 03:55 -34.57891 -65.08418 35932 ft 424 kts 292°
2026-05-04 03:55 -34.55086 -65.14711 35930 ft 424 kts 292°
2026-05-04 03:56 -34.52273 -65.21011 35930 ft 424 kts 292°
2026-05-04 03:56 -34.49460 -65.27297 35930 ft 424 kts 292°
2026-05-04 03:57 -34.46643 -65.33584 35928 ft 424 kts 292°
2026-05-04 03:57 -34.43825 -65.39860 35931 ft 424 kts 292°
2026-05-04 03:58 -34.39592 -65.49266 35927 ft 424 kts 292°
2026-05-04 03:58 -34.36786 -65.55486 35933 ft 424 kts 292°
2026-05-04 03:59 -34.33959 -65.61743 35931 ft 423 kts 292°
2026-05-04 03:59 -34.31134 -65.67984 35936 ft 423 kts 292°
2026-05-04 04:00 -34.28305 -65.74224 35928 ft 423 kts 292°
2026-05-04 04:00 -34.25476 -65.80452 35926 ft 423 kts 292°
2026-05-04 04:01 -34.22639 -65.86685 35934 ft 423 kts 292°
2026-05-04 04:01 -34.19803 -65.92909 35935 ft 423 kts 292°
2026-05-04 04:02 -34.16958 -65.99139 35933 ft 423 kts 292°
2026-05-04 04:02 -34.14111 -66.05360 35935 ft 424 kts 292°
2026-05-04 04:03 -34.11257 -66.11586 35937 ft 425 kts 292°
2026-05-04 04:03 -34.08393 -66.17826 35934 ft 425 kts 293°
2026-05-04 04:04 -34.05523 -66.24065 35934 ft 426 kts 293°
2026-05-04 04:04 -34.02644 -66.30312 35935 ft 426 kts 293°
2026-05-04 04:05 -33.99761 -66.36557 35934 ft 427 kts 293°
2026-05-04 04:05 -33.96870 -66.42809 35933 ft 427 kts 293°
2026-05-04 04:06 -33.93972 -66.49067 35929 ft 428 kts 293°
2026-05-04 04:06 -33.91068 -66.55323 35930 ft 428 kts 293°
2026-05-04 04:07 -33.88178 -66.61541 35929 ft 429 kts 293°
2026-05-04 04:07 -33.85246 -66.67836 35925 ft 429 kts 293°
2026-05-04 04:08 -33.82342 -66.74059 35923 ft 429 kts 293°
2026-05-04 04:08 -33.79412 -66.80324 35920 ft 430 kts 293°
2026-05-04 04:09 -33.76480 -66.86582 35920 ft 430 kts 294°
2026-05-04 04:09 -33.73539 -66.92849 35918 ft 431 kts 294°
2026-05-04 04:10 -33.70591 -66.99122 35913 ft 431 kts 294°
2026-05-04 04:10 -33.67630 -67.05389 35918 ft 432 kts 294°
2026-05-04 04:11 -33.64621 -67.11632 35919 ft 432 kts 294°
2026-05-04 04:11 -33.61604 -67.17875 35918 ft 433 kts 294°
2026-05-04 04:12 -33.58589 -67.24122 35912 ft 433 kts 294°
2026-05-04 04:12 -33.55570 -67.30378 35921 ft 433 kts 294°
2026-05-04 04:13 -33.52550 -67.36634 35920 ft 433 kts 294°
2026-05-04 04:13 -33.49612 -67.42929 35919 ft 433 kts 293°
2026-05-04 04:14 -33.46709 -67.49253 35917 ft 433 kts 293°
2026-05-04 04:14 -33.43792 -67.55569 35929 ft 434 kts 294°
2026-05-04 04:15 -33.40859 -67.61882 35920 ft 434 kts 294°
2026-05-04 04:15 -33.37914 -67.68196 35919 ft 434 kts 294°
2026-05-04 04:16 -33.34966 -67.74507 35921 ft 435 kts 294°
2026-05-04 04:16 -33.32596 -67.81075 35920 ft 428 kts 282°
2026-05-04 04:17 -33.31136 -67.87961 35923 ft 427 kts 280°
2026-05-04 04:17 -33.29818 -67.94886 35921 ft 428 kts 279°
2026-05-04 04:18 -33.28503 -68.01829 35922 ft 429 kts 279°
2026-05-04 04:18 -33.27166 -68.08773 35925 ft 429 kts 279°
2026-05-04 04:19 -33.25813 -68.15725 35924 ft 430 kts 279°
2026-05-04 04:19 -33.24451 -68.22690 35919 ft 431 kts 280°
2026-05-04 04:20 -33.23084 -68.29665 35924 ft 431 kts 280°
2026-05-04 04:20 -33.21712 -68.36640 35925 ft 432 kts 280°
2026-05-04 04:21 -33.20334 -68.43631 35929 ft 433 kts 280°
2026-05-04 04:21 -33.18951 -68.50625 35928 ft 433 kts 280°
2026-05-04 04:22 -33.17569 -68.57591 35934 ft 434 kts 280°
2026-05-04 04:22 -33.16168 -68.64641 35933 ft 434 kts 280°
2026-05-04 04:23 -33.14762 -68.71655 35935 ft 434 kts 280°
2026-05-04 04:23 -33.13355 -68.78667 35932 ft 435 kts 280°
2026-05-04 04:24 -33.11944 -68.85682 35930 ft 436 kts 280°
2026-05-04 04:24 -33.10534 -68.92669 35923 ft 436 kts 280°
2026-05-04 04:25 -33.09112 -68.99698 35919 ft 436 kts 280°
2026-05-04 04:25 -33.07683 -69.06739 35912 ft 437 kts 280°
2026-05-04 04:26 -33.06247 -69.13791 35920 ft 439 kts 281°
2026-05-04 04:26 -33.04804 -69.20853 35929 ft 438 kts 281°
2026-05-04 04:27 -33.04082 -69.24379 35801 ft 437 kts 281°
2026-05-04 04:27 -33.03360 -69.27896 35566 ft 438 kts 281°
2026-05-04 04:27 -33.02881 -69.30232 35407 ft 439 kts 281°
2026-05-04 04:27 -33.02153 -69.33772 35177 ft 441 kts 281°
2026-05-04 04:28 -33.01421 -69.37322 34989 ft 442 kts 281°
2026-05-04 04:28 -33.00689 -69.40875 34762 ft 442 kts 281°
2026-05-04 04:28 -32.99955 -69.44431 34543 ft 441 kts 281°
2026-05-04 04:28 -32.99221 -69.47977 34342 ft 441 kts 281°
2026-05-04 04:29 -32.98489 -69.51512 34125 ft 440 kts 281°
2026-05-04 04:29 -32.97755 -69.55053 33894 ft 439 kts 281°
2026-05-04 04:29 -32.97021 -69.58582 33660 ft 439 kts 281°
2026-05-04 04:29 -32.96288 -69.62108 33100 ft 438 kts 281°
2026-05-04 04:30 -32.95553 -69.65635 32265 ft 440 kts 281°
2026-05-04 04:30 -32.94814 -69.69176 31405 ft 442 kts 281°
2026-05-04 04:30 -32.94071 -69.72734 30498 ft 444 kts 281°
2026-05-04 04:30 -32.93322 -69.76315 29502 ft 447 kts 281°
2026-05-04 04:31 -32.92569 -69.79908 28664 ft 445 kts 281°
2026-05-04 04:31 -32.91821 -69.83459 27995 ft 440 kts 281°
2026-05-04 04:31 -32.91083 -69.86963 27348 ft 434 kts 281°
2026-05-04 04:31 -32.90353 -69.90430 26684 ft 430 kts 281°
2026-05-04 04:32 -32.89637 -69.93822 26026 ft 426 kts 281°
2026-05-04 04:32 -32.88918 -69.97220 25366 ft 421 kts 282°
2026-05-04 04:32 -32.88307 -70.00594 24719 ft 413 kts 277°
2026-05-04 04:32 -32.87944 -70.04011 24132 ft 409 kts 275°
2026-05-04 04:33 -32.87647 -70.07320 23443 ft 406 kts 275°
2026-05-04 04:33 -32.87353 -70.10639 22766 ft 402 kts 275°
2026-05-04 04:33 -32.87056 -70.13936 22123 ft 399 kts 275°
2026-05-04 04:33 -32.86759 -70.17204 21473 ft 396 kts 275°
2026-05-04 04:34 -32.86460 -70.20450 20831 ft 392 kts 275°
2026-05-04 04:34 -32.86163 -70.23657 20193 ft 389 kts 275°
2026-05-04 04:34 -32.85867 -70.26845 19565 ft 387 kts 276°
2026-05-04 04:34 -32.85572 -70.30024 18906 ft 386 kts 276°
2026-05-04 04:35 -32.85277 -70.33193 18414 ft 388 kts 276°
2026-05-04 04:35 -32.84980 -70.36402 17792 ft 390 kts 276°
2026-05-04 04:35 -32.84681 -70.39605 17103 ft 389 kts 277°
2026-05-04 04:35 -32.84379 -70.42809 16541 ft 391 kts 277°
2026-05-04 04:36 -32.84077 -70.46028 15985 ft 391 kts 277°
2026-05-04 04:36 -32.83776 -70.49235 15430 ft 389 kts 277°
2026-05-04 04:36 -32.83477 -70.52423 14895 ft 388 kts 277°
2026-05-04 04:36 -32.83180 -70.55614 14357 ft 387 kts 278°
2026-05-04 04:37 -32.82290 -70.64933 13191 ft 361 kts 278°
2026-05-04 04:37 -32.82096 -70.67852 12931 ft 349 kts 271°
2026-05-04 04:38 -32.82086 -70.70688 12671 ft 337 kts 274°
2026-05-04 04:38 -32.82126 -70.73422 12390 ft 328 kts 263°
2026-05-04 04:38 -32.83019 -70.75866 12125 ft 324 kts 233°
2026-05-04 04:38 -32.84576 -70.77761 11884 ft 317 kts 226°
2026-05-04 04:39 -32.86302 -70.79293 11349 ft 307 kts 211°
2026-05-04 04:39 -32.88323 -70.80146 10479 ft 310 kts 196°
2026-05-04 04:39 -32.90434 -70.80688 9633 ft 310 kts 192°
2026-05-04 04:39 -32.92548 -70.81144 8837 ft 306 kts 191°
2026-05-04 04:40 -32.94640 -70.81520 8146 ft 299 kts 188°
2026-05-04 04:40 -32.96663 -70.81829 7749 ft 293 kts 188°
2026-05-04 04:40 -32.98698 -70.82134 7499 ft 296 kts 188°
2026-05-04 04:40 -33.00738 -70.82353 7185 ft 293 kts 181°
2026-05-04 04:41 -33.02757 -70.82301 6845 ft 289 kts 177°
2026-05-04 04:41 -33.04755 -70.82187 6561 ft 286 kts 177°
2026-05-04 04:41 -33.06738 -70.82061 6483 ft 286 kts 176°
2026-05-04 04:41 -33.08721 -70.81890 6480 ft 286 kts 176°
2026-05-04 04:42 -33.10702 -70.81751 6477 ft 285 kts 177°
2026-05-04 04:42 -33.12649 -70.81639 6310 ft 282 kts 177°
2026-05-04 04:42 -33.14589 -70.81555 6064 ft 276 kts 178°
2026-05-04 04:42 -33.16464 -70.81495 5719 ft 264 kts 178°
2026-05-04 04:43 -33.18252 -70.81397 5315 ft 252 kts 177°
2026-05-04 04:43 -33.19961 -70.81295 4937 ft 241 kts 177°
2026-05-04 04:43 -33.21594 -70.81208 4599 ft 229 kts 177°
2026-05-04 04:43 -33.23142 -70.81127 4314 ft 216 kts 177°
2026-05-04 04:44 -33.24593 -70.81048 4058 ft 201 kts 177°
2026-05-04 04:44 -33.25954 -70.80975 3787 ft 192 kts 177°
2026-05-04 04:44 -33.27284 -70.80904 3535 ft 184 kts 177°
2026-05-04 04:44 -33.28511 -70.80838 3309 ft 174 kts 177°
2026-05-04 04:45 -33.29684 -70.80775 3078 ft 164 kts 177°
2026-05-04 04:45 -33.30788 -70.80715 2854 ft 153 kts 178°
2026-05-04 04:45 -33.31824 -70.80661 2642 ft 147 kts 178°
2026-05-04 04:47 -33.37995 -70.80329 1578 ft 130 kts 177°
2026-05-04 04:47 -33.38775 -70.80289 1581 ft 94 kts 178°
2026-05-04 04:47 -33.39300 -70.80261 1578 ft 57 kts 177°
2026-05-04 04:47 -33.39622 -70.80244 1578 ft 43 kts 177°
2026-05-04 04:48 -33.39830 -70.80231 1579 ft 23 kts 172°
2026-05-04 04:49 -33.40078 -70.80049 1574 ft 9 kts 106°
2026-05-04 04:49 -33.40047 -70.80012 1573 ft 7 kts
2026-05-04 04:49 -33.39986 -70.80015 1573 ft 10 kts 358°
2026-05-04 04:49 -33.39930 -70.80018 1572 ft 0 kts 357°
2026-05-04 04:50 -33.39904 -70.80019 1572 ft 8 kts 357°
2026-05-04 04:50 -33.39855 -70.80006 1572 ft 7 kts 38°
2026-05-04 04:50 -33.39845 -70.79946 1572 ft 9 kts 87°
2026-05-04 04:50 -33.39843 -70.79890 1571 ft 7 kts 87°
2026-05-04 04:51 -33.39841 -70.79821 1571 ft 7 kts 88°
2026-05-04 04:51 -33.39840 -70.79772 1571 ft 7 kts 88°
2026-05-04 04:51 -33.39865 -70.79722 1571 ft 8 kts 147°
2026-05-04 04:51 -33.39900 -70.79711 1571 ft 2 kts 171°
2026-05-04 04:52 -33.39909 -70.79709 1571 ft 2 kts 172°
2026-05-04 04:52 -33.39919 -70.79709 1571 ft 0 kts 177°